| time (UTC) | temp F | wind direction | speed MPH | gust MPH | rain 1hr in | rain 24hr in | rain mn in | humidity % | barometer mb |
| 20260906141212 | 82 | 38 | 0.0 | 4.0 | 0.00 | 0.00 | 0.00 | 45 | 1022.6 |
| 20260906140212 | 82 | 19 | 2.0 | 6.0 | 0.00 | 0.00 | 0.00 | 44 | 1022.7 |
| 20260906135212 | 82 | 321 | 3.0 | 5.0 | 0.00 | 0.00 | 0.00 | 45 | 1022.6 |
| 20260906134212 | 82 | 344 | 2.0 | 6.0 | 0.00 | 0.00 | 0.00 | 45 | 1022.7 |
| 20260906133211 | 82 | 333 | 2.0 | 5.0 | 0.00 | 0.00 | 0.00 | 44 | 1022.8 |
| 20260906132211 | 82 | 355 | 1.0 | 6.0 | 0.00 | 0.00 | 0.00 | 44 | 1022.8 |
| 20260906131212 | 82 | 96 | 3.0 | 8.0 | 0.00 | 0.00 | 0.00 | 44 | 1023.1 |
| 20260906130211 | 82 | 40 | 2.0 | 5.0 | 0.00 | 0.00 | 0.00 | 44 | 1023.2 |
| 20260906125211 | 82 | 23 | 2.0 | 8.0 | 0.00 | 0.00 | 0.00 | 44 | 1023.3 |
| 20260906124211 | 82 | 31 | 1.0 | 7.0 | 0.00 | 0.00 | 0.00 | 44 | 1023.3 |
| 20260906123211 | 83 | 14 | 3.0 | 6.0 | 0.00 | 0.00 | 0.00 | 42 | 1023.6 |
| 20260906122211 | 83 | 41 | 4.0 | 9.0 | 0.00 | 0.00 | 0.00 | 42 | 1023.7 |
| 20260906121211 | 82 | 36 | 2.0 | 6.0 | 0.00 | 0.00 | 0.00 | 43 | 1023.8 |
| 20260906120212 | 81 | 86 | 2.0 | 9.0 | 0.00 | 0.00 | 0.00 | 45 | 1024.0 |
| 20260906115211 | 81 | 355 | 3.0 | 8.0 | 0.00 | 0.00 | 0.00 | 44 | 1024.1 |
| 20260906114211 | 80 | 338 | 2.0 | 5.0 | 0.00 | 0.00 | 0.00 | 46 | 1024.3 |
| 20260906113211 | 79 | 53 | 3.0 | 5.0 | 0.00 | 0.00 | 0.00 | 46 | 1024.4 |
| 20260906112211 | 78 | 34 | 4.0 | 8.0 | 0.00 | 0.00 | 0.00 | 47 | 1024.4 |
| 20260906111211 | 78 | 81 | 2.0 | 5.0 | 0.00 | 0.00 | 0.00 | 48 | 1024.5 |
| 20260906110210 | 77 | 49 | 4.0 | 7.0 | 0.00 | 0.00 | 0.00 | 48 | 1024.6 |
| 20260906105210 | 77 | 78 | 3.0 | 6.0 | 0.00 | 0.00 | 0.00 | 47 | 1024.7 |
| 20260906104210 | 76 | 255 | 1.0 | 5.0 | 0.00 | 0.00 | 0.00 | 50 | 1024.9 |
| 20260906103210 | 76 | 304 | 2.0 | 7.0 | 0.00 | 0.00 | 0.00 | 50 | 1024.9 |
| 20260906102210 | 75 | 85 | 2.0 | 4.0 | 0.00 | 0.00 | 0.00 | 52 | 1024.9 |
| 20260906101210 | 74 | 94 | 3.0 | 5.0 | 0.00 | 0.00 | 0.00 | 51 | 1025.1 |
| 20260906100210 | 73 | 44 | 3.0 | 6.0 | 0.00 | 0.00 | 0.00 | 52 | 1025.1 |
| 20260906095210 | 72 | 57 | 4.0 | 6.0 | 0.00 | 0.00 | 0.00 | 52 | 1025.3 |
| 20260906094210 | 72 | 42 | 4.0 | 9.0 | 0.00 | 0.00 | 0.00 | 54 | 1025.6 |
| 20260906093210 | 71 | 66 | 3.0 | 6.0 | 0.00 | 0.00 | 0.00 | 55 | 1025.6 |
| 20260906092210 | 70 | 138 | 3.0 | 4.0 | 0.00 | 0.00 | 0.00 | 56 | 1025.7 |
| 20260906091210 | 69 | 67 | 2.0 | 6.0 | 0.00 | 0.00 | 0.00 | 59 | 1025.6 |
| 20260906090210 | 69 | 80 | 2.0 | 4.0 | 0.00 | 0.00 | 0.00 | 60 | 1025.7 |
| 20260906085210 | 68 | 96 | 2.0 | 5.0 | 0.00 | 0.00 | 0.00 | 62 | 1025.7 |
| 20260906084210 | 67 | 337 | 2.0 | 4.0 | 0.00 | 0.00 | 0.00 | 63 | 1025.9 |
| 20260906083210 | 66 | 102 | 1.0 | 4.0 | 0.00 | 0.00 | 0.00 | 64 | 1026.0 |
| 20260906082210 | 66 | 63 | 0.0 | 4.0 | 0.00 | 0.00 | 0.00 | 66 | 1025.9 |
| 20260906081209 | 65 | 12 | 1.0 | 4.0 | 0.00 | 0.00 | 0.00 | 67 | 1026.0 |
| 20260906080210 | 64 | 78 | 3.0 | 7.0 | 0.00 | 0.00 | 0.00 | 69 | 1026.1 |
| 20260906075210 | 63 | 67 | 2.0 | 5.0 | 0.00 | 0.00 | 0.00 | 71 | 1026.1 |
| 20260905221213 | 62 | 13 | 0.0 | 1.0 | 0.00 | 0.01 | 0.00 | 83 | 1025.2 |
| 20260905220212 | 62 | 42 | 0.0 | 1.0 | 0.00 | 0.01 | 0.00 | 83 | 1025.2 |
| 20260905215212 | 62 | 42 | 0.0 | 3.0 | 0.00 | 0.01 | 0.01 | 82 | 1025.2 |
| 20260905214212 | 62 | 5 | 0.0 | 1.0 | 0.00 | 0.01 | 0.01 | 82 | 1025.2 |
| 20260905213212 | 63 | 63 | 0.0 | 0.0 | 0.00 | 0.01 | 0.01 | 82 | 1025.2 |
| 20260905212212 | 63 | 150 | 0.0 | 2.0 | 0.00 | 0.01 | 0.01 | 81 | 1025.1 |
| 20260905211212 | 64 | 79 | 0.0 | 3.0 | 0.00 | 0.01 | 0.01 | 81 | 1025.0 |
| 20260905210212 | 64 | 338 | 1.0 | 3.0 | 0.00 | 0.01 | 0.01 | 80 | 1024.8 |
| 20260905205212 | 64 | 348 | 2.0 | 3.0 | 0.00 | 0.01 | 0.01 | 80 | 1024.8 |
| 20260905204212 | 64 | 159 | 0.0 | 0.0 | 0.00 | 0.01 | 0.01 | 79 | 1024.8 |
| 20260905203212 | 65 | 302 | 0.0 | 1.0 | 0.00 | 0.01 | 0.01 | 79 | 1024.7 |
| 20260905202212 | 65 | 302 | 0.0 | 3.0 | 0.00 | 0.01 | 0.01 | 79 | 1024.5 |
| 20260905201212 | 65 | 238 | 0.0 | 2.0 | 0.00 | 0.01 | 0.01 | 79 | 1024.6 |
| 20260905200212 | 66 | 302 | 0.0 | 2.0 | 0.00 | 0.01 | 0.01 | 78 | 1024.4 |
| 20260905195212 | 66 | 302 | 0.0 | 2.0 | 0.00 | 0.01 | 0.01 | 78 | 1024.1 |
| 20260905194212 | 66 | 213 | 2.0 | 4.0 | 0.00 | 0.01 | 0.01 | 77 | 1024.0 |
| 20260905193212 | 67 | 241 | 0.0 | 2.0 | 0.00 | 0.01 | 0.01 | 77 | 1024.0 |
| 20260905192212 | 67 | 198 | 0.0 | 0.0 | 0.00 | 0.01 | 0.01 | 76 | 1023.9 |
| 20260905191212 | 68 | 182 | 0.0 | 0.0 | 0.00 | 0.01 | 0.01 | 74 | 1023.8 |
| 20260905190212 | 69 | 163 | 0.0 | 3.0 | 0.00 | 0.01 | 0.01 | 73 | 1023.7 |
| 20260905185212 | 69 | 150 | 1.0 | 2.0 | 0.00 | 0.01 | 0.01 | 72 | 1023.6 |
| 20260905184212 | 70 | 157 | 0.0 | 0.0 | 0.00 | 0.01 | 0.01 | 71 | 1023.5 |
| 20260905183212 | 71 | 155 | 0.0 | 0.0 | 0.00 | 0.01 | 0.01 | 69 | 1023.5 |
| 20260905182212 | 71 | 137 | 1.0 | 2.0 | 0.00 | 0.01 | 0.01 | 68 | 1023.3 |
| 20260905181212 | 72 | 186 | 0.0 | 1.0 | 0.00 | 0.01 | 0.01 | 66 | 1023.2 |
| 20260905180212 | 73 | 186 | 1.0 | 4.0 | 0.00 | 0.01 | 0.01 | 65 | 1023.1 |
| 20260905175212 | 74 | 173 | 2.0 | 5.0 | 0.00 | 0.01 | 0.01 | 65 | 1023.0 |
| 20260905174212 | 74 | 137 | 1.0 | 2.0 | 0.00 | 0.01 | 0.01 | 63 | 1023.0 |
| 20260905173212 | 75 | 159 | 1.0 | 4.0 | 0.00 | 0.01 | 0.01 | 62 | 1023.0 |
| 20260905172212 | 75 | 157 | 2.0 | 4.0 | 0.00 | 0.01 | 0.01 | 61 | 1023.1 |
| 20260905171212 | 76 | 198 | 2.0 | 3.0 | 0.00 | 0.01 | 0.01 | 60 | 1022.9 |
| 20260905170212 | 76 | 178 | 3.0 | 5.0 | 0.00 | 0.01 | 0.01 | 59 | 1022.9 |
| 20260905165212 | 76 | 219 | 2.0 | 5.0 | 0.00 | 0.01 | 0.01 | 57 | 1022.9 |
| 20260905164212 | 76 | 198 | 2.0 | 5.0 | 0.00 | 0.01 | 0.01 | 56 | 1022.8 |
| 20260905163212 | 76 | 215 | 2.0 | 5.0 | 0.00 | 0.01 | 0.01 | 57 | 1022.8 |
| 20260905162212 | 76 | 261 | 3.0 | 6.0 | 0.00 | 0.01 | 0.01 | 57 | 1022.8 |
| 20260905161212 | 76 | 239 | 2.0 | 7.0 | 0.00 | 0.01 | 0.01 | 58 | 1022.7 |
| 20260905160212 | 76 | 197 | 4.0 | 5.0 | 0.00 | 0.01 | 0.01 | 59 | 1022.7 |
| 20260905155212 | 76 | 183 | 4.0 | 7.0 | 0.00 | 0.01 | 0.01 | 60 | 1022.7 |
| 20260905154212 | 76 | 154 | 4.0 | 8.0 | 0.00 | 0.01 | 0.01 | 60 | 1022.6 |
| 20260905153212 | 76 | 188 | 3.0 | 9.0 | 0.00 | 0.01 | 0.01 | 62 | 1022.6 |
| 20260905152212 | 76 | 165 | 3.0 | 9.0 | 0.00 | 0.01 | 0.01 | 64 | 1022.7 |
| 20260905151212 | 76 | 212 | 5.0 | 9.0 | 0.00 | 0.01 | 0.01 | 64 | 1022.7 |
| 20260905150212 | 76 | 242 | 7.0 | 12.0 | 0.00 | 0.01 | 0.01 | 63 | 1022.7 |
| 20260905145212 | 76 | 213 | 6.0 | 13.0 | 0.00 | 0.01 | 0.01 | 66 | 1022.7 |
| 20260905144212 | 76 | 155 | 4.0 | 9.0 | 0.00 | 0.01 | 0.01 | 67 | 1022.8 |
| 20260905143212 | 76 | 192 | 7.0 | 12.0 | 0.00 | 0.01 | 0.01 | 67 | 1022.9 |
| 20260905142212 | 75 | 206 | 5.0 | 12.0 | 0.00 | 0.01 | 0.01 | 68 | 1022.9 |